Time,TemperatureF,DewpointF,PressureIn,WindDirection,WindDirectionDegrees,WindSpeedMPH,WindSpeedGustMPH,Humidity,HourlyPrecipIn,Conditions,Clouds,dailyrainin,SoftwareType,DateUTC
2014-04-20 00:11:00,37.8,26.0,30.06,SSW,192,4.0,6.0,62,0.00,,,0.00,weatherlink.com 1.10,2014-04-20 04:11:00,
2014-04-20 00:26:00,37.8,26.0,30.07,SE,142,3.0,4.0,62,0.00,,,0.00,weatherlink.com 1.10,2014-04-20 04:26:00,
2014-04-20 00:41:00,37.3,26.0,30.07,SE,140,0.0,4.0,63,0.00,,,0.00,weatherlink.com 1.10,2014-04-20 04:41:00,
2014-04-20 00:56:00,35.9,26.0,30.08,SE,130,0.0,5.0,67,0.00,,,0.00,weatherlink.com 1.10,2014-04-20 04:56:00,
2014-04-20 01:11:00,34.6,25.0,30.07,WSW,258,3.0,4.0,69,0.00,,,0.00,weatherlink.com 1.10,2014-04-20 05:11:00,
2014-04-20 01:27:00,33.3,26.0,30.06,SSE,167,3.0,5.0,73,0.00,,,0.00,weatherlink.com 1.10,2014-04-20 05:27:00,
2014-04-20 01:42:00,33.5,25.0,30.07,WNW,301,0.0,6.0,72,0.00,,,0.00,weatherlink.com 1.10,2014-04-20 05:42:00,
2014-04-20 01:57:00,32.8,25.0,30.07,WNW,297,0.0,3.0,74,0.00,,,0.00,weatherlink.com 1.10,2014-04-20 05:57:00,
2014-04-20 02:12:00,32.5,25.0,30.07,North,355,0.0,3.0,75,0.00,,,0.00,weatherlink.com 1.10,2014-04-20 06:12:00,
2014-04-20 02:27:00,31.3,25.0,30.07,East,86,1.0,3.0,77,0.00,,,0.00,weatherlink.com 1.10,2014-04-20 06:27:00,
2014-04-20 02:42:00,30.9,25.0,30.07,ESE,117,1.0,3.0,79,0.00,,,0.00,weatherlink.com 1.10,2014-04-20 06:42:00,
2014-04-20 02:57:00,30.1,24.0,30.06,ENE,62,1.0,3.0,79,0.00,,,0.00,weatherlink.com 1.10,2014-04-20 06:57:00,
2014-04-20 03:12:00,29.8,24.0,30.07,NNW,329,3.0,4.0,80,0.00,,,0.00,weatherlink.com 1.10,2014-04-20 07:12:00,
2014-04-20 03:27:00,29.6,24.0,30.07,NW,314,0.0,3.0,81,0.00,,,0.00,weatherlink.com 1.10,2014-04-20 07:27:00,
2014-04-20 03:42:00,29.1,24.0,30.07,WNW,292,1.0,3.0,82,0.00,,,0.00,weatherlink.com 1.10,2014-04-20 07:42:00,
2014-04-20 03:57:00,28.6,24.0,30.08,NE,41,2.0,3.0,83,0.00,,,0.00,weatherlink.com 1.10,2014-04-20 07:57:00,
2014-04-20 04:12:00,28.5,24.0,30.08,NE,53,0.0,2.0,84,0.00,,,0.00,weatherlink.com 1.10,2014-04-20 08:12:00,
2014-04-20 04:27:00,28.1,24.0,30.09,ENE,75,0.0,3.0,85,0.00,,,0.00,weatherlink.com 1.10,2014-04-20 08:27:00,
2014-04-20 04:42:00,27.6,24.0,30.10,ENE,75,0.0,0.0,85,0.00,,,0.00,weatherlink.com 1.10,2014-04-20 08:42:00,
2014-04-20 04:57:00,26.9,23.0,30.10,ENE,75,0.0,0.0,86,0.00,,,0.00,weatherlink.com 1.10,2014-04-20 08:57:00,
2014-04-20 05:12:00,26.5,23.0,30.10,ENE,75,0.0,0.0,87,0.00,,,0.00,weatherlink.com 1.10,2014-04-20 09:12:00,
2014-04-20 05:27:00,26.2,23.0,30.10,ENE,75,0.0,0.0,88,0.00,,,0.00,weatherlink.com 1.10,2014-04-20 09:27:00,
2014-04-20 05:42:00,26.4,24.0,30.12,ENE,75,0.0,2.0,90,0.00,,,0.00,weatherlink.com 1.10,2014-04-20 09:42:00,
2014-04-20 05:57:00,26.5,24.0,30.13,ENE,75,0.0,2.0,89,0.00,,,0.00,weatherlink.com 1.10,2014-04-20 09:57:00,
2014-04-20 06:12:00,26.4,24.0,30.14,ENE,75,0.0,1.0,89,0.00,,,0.00,weatherlink.com 1.10,2014-04-20 10:12:00,
2014-04-20 06:27:00,26.2,23.0,30.14,ENE,75,1.0,2.0,89,0.00,,,0.00,weatherlink.com 1.10,2014-04-20 10:27:00,
2014-04-20 06:42:00,26.4,24.0,30.14,ENE,75,0.0,0.0,89,0.00,,,0.00,weatherlink.com 1.10,2014-04-20 10:42:00,
2014-04-20 06:57:00,26.7,24.0,30.15,ENE,75,0.0,0.0,89,0.00,,,0.00,weatherlink.com 1.10,2014-04-20 10:57:00,
2014-04-20 07:12:00,28.0,25.0,30.15,NNE,16,0.0,0.0,89,0.00,,,0.00,weatherlink.com 1.10,2014-04-20 11:12:00,
2014-04-20 07:28:00,29.5,26.0,30.15,SSW,194,0.0,1.0,86,0.00,,,0.00,weatherlink.com 1.10,2014-04-20 11:28:00,
2014-04-20 07:43:00,31.6,27.0,30.15,SSE,163,2.0,2.0,83,0.00,,,0.00,weatherlink.com 1.10,2014-04-20 11:43:00,
2014-04-20 07:58:00,33.4,28.0,30.15,SSE,163,1.0,2.0,81,0.00,,,0.00,weatherlink.com 1.10,2014-04-20 11:58:00,
2014-04-20 08:13:00,35.0,28.0,30.16,SSE,158,2.0,2.0,75,0.00,,,0.00,weatherlink.com 1.10,2014-04-20 12:13:00,
2014-04-20 08:28:00,36.9,28.0,30.15,ESE,111,2.0,2.0,70,0.00,,,0.00,weatherlink.com 1.10,2014-04-20 12:28:00,
2014-04-20 08:43:00,39.8,28.0,30.15,South,180,4.0,5.0,63,0.00,,,0.00,weatherlink.com 1.10,2014-04-20 12:43:00,
2014-04-20 08:58:00,42.5,24.0,30.14,South,189,6.0,6.0,49,0.00,,,0.00,weatherlink.com 1.10,2014-04-20 12:58:00,
2014-04-20 09:13:00,44.6,22.0,30.14,West,275,1.0,3.0,41,0.00,,,0.00,weatherlink.com 1.10,2014-04-20 13:13:00,
2014-04-20 09:28:00,45.0,18.0,30.15,WSW,255,7.0,11.0,34,0.00,,,0.00,weatherlink.com 1.10,2014-04-20 13:28:00,
2014-04-20 09:43:00,45.6,19.0,30.15,WNW,296,1.0,9.0,34,0.00,,,0.00,weatherlink.com 1.10,2014-04-20 13:43:00,
2014-04-20 09:58:00,46.3,19.0,30.15,NW,311,5.0,7.0,34,0.00,,,0.00,weatherlink.com 1.10,2014-04-20 13:58:00,
2014-04-20 10:13:00,46.3,17.0,30.15,South,183,2.0,8.0,31,0.00,,,0.00,weatherlink.com 1.10,2014-04-20 14:13:00,
2014-04-20 10:28:00,46.6,18.0,30.14,West,270,5.0,9.0,32,0.00,,,0.00,weatherlink.com 1.10,2014-04-20 14:28:00,
2014-04-20 10:43:00,47.5,19.0,30.14,South,183,1.0,9.0,32,0.00,,,0.00,weatherlink.com 1.10,2014-04-20 14:43:00,
2014-04-20 10:58:00,48.6,20.0,30.13,WSW,242,4.0,10.0,32,0.00,,,0.00,weatherlink.com 1.10,2014-04-20 14:58:00,
2014-04-20 11:13:00,48.2,19.0,30.12,South,182,4.0,9.0,31,0.00,,,0.00,weatherlink.com 1.10,2014-04-20 15:13:00,
2014-04-20 11:29:00,49.1,17.0,30.12,SW,215,4.0,9.0,28,0.00,,,0.00,weatherlink.com 1.10,2014-04-20 15:29:00,
2014-04-20 11:44:00,50.0,17.0,30.12,WSW,257,7.0,10.0,27,0.00,,,0.00,weatherlink.com 1.10,2014-04-20 15:44:00,
2014-04-20 11:59:00,50.6,18.0,30.11,West,263,1.0,7.0,27,0.00,,,0.00,weatherlink.com 1.10,2014-04-20 15:59:00,
2014-04-20 12:14:00,50.9,17.0,30.10,West,278,5.0,11.0,26,0.00,,,0.00,weatherlink.com 1.10,2014-04-20 16:14:00,
2014-04-20 12:29:00,51.7,19.0,30.10,West,272,3.0,8.0,27,0.00,,,0.00,weatherlink.com 1.10,2014-04-20 16:29:00,
2014-04-20 12:44:00,52.4,17.0,30.09,ENE,61,0.0,7.0,25,0.00,,,0.00,weatherlink.com 1.10,2014-04-20 16:44:00,
2014-04-20 12:59:00,53.1,19.0,30.09,ESE,103,5.0,8.0,26,0.00,,,0.00,weatherlink.com 1.10,2014-04-20 16:59:00,
2014-04-20 13:14:00,52.8,16.0,30.08,ESE,103,9.0,9.0,23,0.00,,,0.00,weatherlink.com 1.10,2014-04-20 17:14:00,
2014-04-20 13:29:00,53.7,19.0,30.08,NW,311,7.0,8.0,26,0.00,,,0.00,weatherlink.com 1.10,2014-04-20 17:29:00,
2014-04-20 13:44:00,54.5,17.0,30.07,ENE,74,5.0,7.0,23,0.00,,,0.00,weatherlink.com 1.10,2014-04-20 17:44:00,
2014-04-20 13:59:00,54.5,17.0,30.07,SW,225,1.0,8.0,23,0.00,,,0.00,weatherlink.com 1.10,2014-04-20 17:59:00,
2014-04-20 14:14:00,55.9,19.0,30.06,West,272,4.0,10.0,24,0.00,,,0.00,weatherlink.com 1.10,2014-04-20 18:14:00,
2014-04-20 14:29:00,56.5,20.0,30.06,North,10,4.0,9.0,24,0.00,,,0.00,weatherlink.com 1.10,2014-04-20 18:29:00,
2014-04-20 14:44:00,56.3,20.0,30.05,West,270,5.0,7.0,24,0.00,,,0.00,weatherlink.com 1.10,2014-04-20 18:44:00,
2014-04-20 14:59:00,57.6,20.0,30.05,North,10,7.0,13.0,23,0.00,,,0.00,weatherlink.com 1.10,2014-04-20 18:59:00,
2014-04-20 15:14:00,58.0,18.0,30.04,East,82,2.0,10.0,21,0.00,,,0.00,weatherlink.com 1.10,2014-04-20 19:14:00,
2014-04-20 15:29:00,57.1,20.0,30.04,NE,44,2.0,10.0,24,0.00,,,0.00,weatherlink.com 1.10,2014-04-20 19:29:00,
2014-04-20 15:44:00,57.2,20.0,30.03,NNE,24,3.0,9.0,23,0.00,,,0.00,weatherlink.com 1.10,2014-04-20 19:44:00,
2014-04-20 15:59:00,57.8,20.0,30.03,NE,34,3.0,9.0,23,0.00,,,0.00,weatherlink.com 1.10,2014-04-20 19:59:00,
2014-04-20 16:14:00,58.2,19.0,30.03,WNW,289,3.0,6.0,22,0.00,,,0.00,weatherlink.com 1.10,2014-04-20 20:14:00,
2014-04-20 16:29:00,58.8,18.0,30.03,North,355,2.0,8.0,20,0.00,,,0.00,weatherlink.com 1.10,2014-04-20 20:29:00,
2014-04-20 16:44:00,59.4,18.0,30.02,NNE,20,6.0,8.0,20,0.00,,,0.00,weatherlink.com 1.10,2014-04-20 20:44:00,
2014-04-20 16:59:00,58.6,19.0,30.01,NNW,327,1.0,9.0,21,0.00,,,0.00,weatherlink.com 1.10,2014-04-20 20:59:00,
2014-04-20 17:14:00,58.0,18.0,30.01,NE,55,4.0,12.0,21,0.00,,,0.00,weatherlink.com 1.10,2014-04-20 21:14:00,
2014-04-20 17:29:00,59.1,19.0,30.01,NNE,15,5.0,8.0,21,0.00,,,0.00,weatherlink.com 1.10,2014-04-20 21:29:00,
2014-04-20 17:44:00,58.8,20.0,30.01,NE,52,4.0,8.0,22,0.00,,,0.00,weatherlink.com 1.10,2014-04-20 21:44:00,
2014-04-20 17:59:00,58.9,20.0,30.00,NNE,20,3.0,5.0,22,0.00,,,0.00,weatherlink.com 1.10,2014-04-20 21:59:00,
2014-04-20 18:14:00,58.7,21.0,30.00,NNW,333,3.0,7.0,23,0.00,,,0.00,weatherlink.com 1.10,2014-04-20 22:14:00,
2014-04-20 18:29:00,58.4,21.0,29.99,North,5,3.0,9.0,23,0.00,,,0.00,weatherlink.com 1.10,2014-04-20 22:29:00,
2014-04-20 18:44:00,57.1,21.0,29.99,NW,307,6.0,9.0,25,0.00,,,0.00,weatherlink.com 1.10,2014-04-20 22:44:00,
2014-04-20 18:59:00,55.9,22.0,29.99,West,279,6.0,7.0,27,0.00,,,0.00,weatherlink.com 1.10,2014-04-20 22:59:00,
2014-04-20 19:15:00,54.6,24.0,29.99,NW,321,1.0,7.0,30,0.00,,,0.00,weatherlink.com 1.10,2014-04-20 23:15:00,
2014-04-20 19:30:00,52.9,24.0,29.99,NW,313,5.0,8.0,33,0.00,,,0.00,weatherlink.com 1.10,2014-04-20 23:30:00,
2014-04-20 19:45:00,51.5,25.0,29.98,North,9,4.0,10.0,35,0.00,,,0.00,weatherlink.com 1.10,2014-04-20 23:45:00,
2014-04-20 20:00:00,50.5,24.0,29.98,NNE,27,2.0,8.0,35,0.00,,,0.00,weatherlink.com 1.10,2014-04-21 00:00:00,
2014-04-20 20:15:00,49.5,23.0,29.99,NNW,341,2.0,6.0,35,0.00,,,0.00,weatherlink.com 1.10,2014-04-21 00:15:00,